Location: Góry Miechowskie
(50.3599°N, 20.1803°E)
Time: 15:41:06
(UTC+00:00)

Courier 1B Rocket - Pass Details

Date: 14 September 2024
Orbit: 920 x 1201 km, 28.3° (Epoch: 11 October)

Event Time Altitude Azimuth Distance (km) Brightness Sun altitude
Rises 17:10:56 0° 232° (SW) 3,841 8.8 -3.4°
Reaches altitude 10° 17:16:05 10° 200° (SSW) 2,962 7.7 -4.2°
Maximum altitude 17:18:09 11° 184° (S) 2,891 7.4 -4.6°
Drops below altitude 10° 17:20:14 10° 167° (SSE) 3,016 7.3 -4.9°
Sets 17:25:39 0° 136° (SE) 4,036 7.7 -5.7°
